Regional Weather Roundup
Issued by NWS Kansas City/Pleasant Hill, MO

Home | Current Version | Previous Version | Graphics & Text | Print | Product List | Glossary Off
Versions: 1 2 3 4 5 6 7 8 9 10 11 12 13 14 15 16 17 18 19 20 21 22 23 24 25 26 27 28 29 30 31 32 33 34 35 36 37 38 39 40 41 42 43 44 45 46 47 48 49 50

000
ASUS43 KEAX 210204
RWREAX

WEATHER ROUNDUP FOR EASTERN KANSAS AND NORTHWEST MISSOURI
NATIONAL WEATHER SERVICE KANSAS CITY/PLEASANT HILL MO
900 PM CDT SUN APR 20 2014

KSZ040-057-103>105-MOZ028-029-037-043-210300-
...KANSAS CITY METROPOLITAN AREA...

CITY           SKY/WX    TMP DP  RH WIND       PRES   REMARKS
K.C. INTL      CLOUDY    67  54  63 S7        30.01R
K.C. DOWNTOWN  CLOUDY    70  53  54 S8        30.00R
LEES SUMMIT    MOCLDY    68  52  56 S6        30.02R
OLATHE - IXD   CLOUDY    66  54  65 S7        30.02R
OLATHE - OJC   CLOUDY    65  54  67 S7        30.01R
LAWRENCE       CLOUDY    68  55  63 S5        30.00R

$$

MOZ001>008-011>017-020>025-030>033-038>040-044>046-053-054-210300-
...NORTHERN AND CENTRAL MISSOURI...

CITY           SKY/WX    TMP DP  RH WIND       PRES   REMARKS
ST. JOSEPH     CLOUDY    69  55  60 SW7       29.99R
MOSBY          FAIR      70  54  56 S5        30.00R
WHITEMAN AFB   CLOUDY    67  52  58 S5        30.02F
CLINTON        CLOUDY    70  55  60 CALM      30.03S HAZE
SEDALIA        CLOUDY    70  54  56 SW5       30.03S
WARSAW         NOT AVBL
MARSHALL         N/A     72  55  56 SW7       30.03S
CHILLICOTHE      N/A     72  50  45 S8        30.01R
MOBERLY        CLOUDY    72  48  43 SW7       30.03R
KIRKSVILLE     MOCLDY    68  48  48 S6        30.01R

$$

MOZ041-047>049-056>058-063>065-088>090-097-210300-
...EASTERN AND SOUTHERN MISSOURI...

CITY           SKY/WX    TMP DP  RH WIND       PRES   REMARKS
ST. LOUIS INTL MOCLDY    75  43  31 SE13      30.05R
SPIRIT OF STL  CLOUDY    73  43  33 SE6       30.03R
COLUMBIA       CLOUDY    70  50  49 S6        30.03R
JEFFERSON CITY CLOUDY    74  49  41 S3        30.02R
MEXICO         CLOUDY    66  52  59 S7        30.03R
HANNIBAL       PTCLDY    72  41  33 SE3       30.02S
ROLLA          PTCLDY    66  48  52 S6        30.04R
LEBANON        CLOUDY    70  48  46 CALM      30.06S
OSAGE BEACH    CLOUDY    70  48  46 CALM      30.05S
SPRINGFIELD    MOCLDY    64  51  62 SW7       30.05R
BRANSON        MOCLDY    68  48  49 S5        30.08R
NEVADA         CLOUDY    63  54  72 SE5       30.04S
JOPLIN         MOCLDY    65  52  62 S6        30.05R
WEST PLAINS    MOCLDY    69  45  41 SE5       30.08S

$$

IAZ060-094-KSZ022-034>040-054-083-096-NEZ052-066-093-210300-
...KANSAS...SOUTHEAST NEBRASKA AND IOWA...

CITY           SKY/WX    TMP DP  RH WIND       PRES   REMARKS
TOPEKA         CLOUDY    70  56  61 S3        30.00R
MANHATTAN      CLOUDY    64  58  80 CALM      29.97R
EMPORIA        CLOUDY    65  55  70 S8        29.98S
CHANUTE        CLOUDY    65  54  67 S7        30.01S
WICHITA        MOCLDY    67  55  65 S15       29.98R
OMAHA          CLOUDY    65  58  78 S6        29.94S
LINCOLN        MOCLDY    64  59  83 SE8       29.96R
LAMONI         MOCLDY    67  53  61 S7        29.98R
DES MOINES     MOCLDY    71  52  50 S8        29.95R

$$




USA.gov is the U.S. government's official web portal to all federal, state and local government web resources and services.